Current weather by "City, St" or "zip code"  
 

Current Conditions: St. Louis Regional Airport, IL

Fair


35.0 F

Last Updated on Oct 31 2020, 2:55 am CDT
Humidity: 100%
Wind Speed: E 5.8 mph
Barometer 30.29 in
Dewpoint: 35.2 F
Visibility: 10.00 mi
Precip: --
Heat Index: NA
Wind Chill: 30 F
Current conditions at:

St. Louis Regional Airport, IL (KALN)

Lat: 38.88968 Lon: 90.03163

Local Radar Image active severe weather and emergency alerts image image weather storm and storm spotter reports image weather observation monitoring service image
Local
Radar
Active
Alerts
Storm Reports Obs
Monitoring

Sign-up For Email & Text Message Weather Alert Notification Services



Advertise Here

Observation History for St. Louis Regional Airport, IL


Time Wind
(mph)
Vis
(mi)
Weather Precip (in) Temperature (F) Relative
Humidity
Wind
Chill
(F)
Heat
Index
(F)
Pressure
Air Dwpt altimeter
(in)
sea level
(mb)
Rmks
2:55 am CDT E 5.8 10.00 Fair -- 35.0 35.2 100% 30 NA 30.29 M
1:55 am CDT E 3.5 10.00 Fair -- 37.0 36.7 97% NA NA 30.30 M
1:35 am CDT E 3.5 10.00 Fair -- 38.0 36.5 96% NA NA 30.30 M
12:55 am CDT E 4.6 10.00 Fair -- 38.0 36.5 95% 34 NA 30.30 M
11:55 pm CDT E 4.6 10.00 Fair -- 38.0 37.0 97% 34 NA 30.31 M
10:55 pm CDT SE 4.6 10.00 Fair -- 38.0 37.0 96% 34 NA 30.30 M
9:50 pm CDT E 5.8 10.00 Fair -- 41.0 37.4 87% 37 NA 30.29 M
8:50 pm CDT E 5.8 10.00 Fair -- 41.0 37.4 87% 37 NA 30.29 M
7:50 pm CDT E 4.6 10.00 Fair -- 41.0 37.4 87% 38 NA 30.29 M
6:50 pm CDT E 4.6 10.00 Fair -- 45.0 37.4 76% 43 NA 30.27 M
5:50 pm CDT N 0.0 10.00 Fair -- 50.0 35.6 58% NA NA 30.27 M
4:50 pm CDT E 3.5 10.00 Fair -- 52.0 35.6 54% NA NA 30.27 M
3:50 pm CDT N 0.0 10.00 Fair -- 52.0 35.6 54% NA NA 30.28 M
2:47 pm CDT 3.5 10.00 Fair -- 52.0 37.4 58% NA NA 30.29 M
1:50 pm CDT 3.5 10.00 Fair -- 50.0 35.6 58% NA NA 30.30 M
12:50 pm CDT 4.6 10.00 Fair -- 50.0 35.6 58% 48 NA 30.32 M
11:50 am CDT 4.6 10.00 A Few Clouds -- 46.0 35.6 66% 44 NA 30.33 M
10:50 am CDT 3.5 10.00 Fair -- 45.0 37.4 76% NA NA 30.33 M
9:50 am CDT 3.5 10.00 Fair -- 41.0 35.6 81% NA NA 30.33 M
8:50 am CDT 3.5 10.00 Fair -- 36.0 35.6 100% NA NA 30.30 M
7:47 am CDT 4.6 10.00 Fair -- 32.0 30.2 93% 27 NA 30.27 M
6:50 am CDT 5.8 10.00 Fair -- 32.0 30.2 93% 26 NA 30.26 M
5:55 am CDT N 0.0 10.00 Fair -- 35.0 33.4 93% NA NA 30.24 M
4:55 am CDT NW 3.5 10.00 Fair -- 36.0 33.3 90% NA NA 30.21 M

Regional Weather Observation


St. Charles, St. Charles County Smartt Airport, MO (KSET)

Fair
37.0 F

St. Louis Lambert International Airport, MO (KSTL)

Fair
40.0 F

Litchfield Municipal Airport, IL (K3LF)

Fair
38.0 F

St. Louis Downtown Airport, IL (KCPS)

Fair
40.0 F

St. Louis, Spirit Of St. Louis Airport, MO (KSUS)

Fair
37.0 F

Jacksonville Municipal Airport, IL (KIJX)

Fog/Mist
36.0 F